�������l�o���
Date,Time,MP-1(��Sv/h),MP-2(��Sv/h),MP-3(��Sv/h),MP-4(��Sv/h),MP-5(��Sv/h),MP-6(��Sv/h),MP-7(��Sv/h),MP-8(��Sv/h),����,����(m/s),���J
2017/01/07,00:00,1.098,1.841,1.199,2.090,1.444,0.565,1.034,0.959,���k��,5.5,��
2017/01/07,00:10,1.098,1.842,1.198,2.090,1.445,0.565,1.034,0.961,��,6.1,��
2017/01/07,00:20,1.100,1.842,1.199,2.092,1.443,0.565,1.038,0.962,���k��,5.9,��
2017/01/07,00:30,1.099,1.843,1.199,2.090,1.442,0.567,1.034,0.960,���k��,5.5,��
2017/01/07,00:40,1.098,1.837,1.199,2.092,1.445,0.564,1.035,0.962,���k��,5.1,��
2017/01/07,00:50,1.098,1.836,1.198,2.094,1.443,0.565,1.037,0.961,���k��,5.0,��
2017/01/07,01:00,1.097,1.841,1.198,2.092,1.444,0.565,1.035,0.960,���k��,4.0,��
2017/01/07,01:10,1.097,1.840,1.198,2.094,1.441,0.566,1.035,0.962,��,4.4,��
2017/01/07,01:20,1.098,1.839,1.197,2.092,1.441,0.565,1.035,0.960,��,5.0,��
2017/01/07,01:30,1.097,1.838,1.197,2.091,1.440,0.566,1.036,0.960,��,4.3,��
2017/01/07,01:40,1.099,1.840,1.199,2.091,1.443,0.566,1.036,0.961,���k��,3.7,��
2017/01/07,01:50,1.095,1.838,1.200,2.092,1.442,0.565,1.035,0.960,���k��,4.0,��
2017/01/07,02:00,1.098,1.839,1.197,2.089,1.441,0.567,1.036,0.960,���k��,3.4,��
2017/01/07,02:10,1.099,1.837,1.198,2.090,1.444,0.565,1.035,0.962,��,2.9,��
2017/01/07,02:20,1.096,1.838,1.198,2.090,1.443,0.565,1.035,0.961,��,2.3,��
2017/01/07,02:30,1.097,1.840,1.196,2.092,1.443,0.565,1.035,0.961,���k��,1.5,��
2017/01/07,02:40,1.097,1.839,1.196,2.091,1.445,0.564,1.035,0.958,���k��,2.0,��
2017/01/07,02:50,1.096,1.840,1.197,2.091,1.445,0.565,1.037,0.959,���k��,3.0,��
2017/01/07,03:00,1.098,1.839,1.197,2.091,1.444,0.565,1.036,0.961,���k��,5.1,��
2017/01/07,03:10,1.096,1.840,1.197,2.089,1.441,0.566,1.034,0.960,���k��,4.8,��
2017/01/07,03:20,1.100,1.839,1.200,2.091,1.442,0.566,1.035,0.960,��,3.5,��
2017/01/07,03:30,1.098,1.840,1.195,2.091,1.441,0.565,1.034,0.962,��,3.3,��
2017/01/07,03:40,1.098,1.837,1.197,2.089,1.438,0.565,1.036,0.962,��,2.6,��
2017/01/07,03:50,1.099,1.836,1.197,2.087,1.442,0.565,1.035,0.960,��,2.3,��
2017/01/07,04:00,1.097,1.837,1.196,2.092,1.441,0.567,1.035,0.961,���k��,3.7,��
2017/01/07,04:10,1.098,1.839,1.196,2.089,1.446,0.564,1.035,0.960,���k��,4.1,��
2017/01/07,04:20,1.096,1.839,1.198,2.090,1.439,0.566,1.035,0.961,���k��,5.3,��
2017/01/07,04:30,1.098,1.835,1.197,2.092,1.441,0.564,1.034,0.960,��,5.5,��
2017/01/07,04:40,1.098,1.839,1.195,2.094,1.440,0.563,1.035,0.960,��,4.8,��
2017/01/07,04:50,1.097,1.837,1.195,2.087,1.437,0.564,1.034,0.960,��,3.4,��
2017/01/07,05:00,1.097,1.834,1.197,2.088,1.441,0.563,1.036,0.961,��,3.7,��
2017/01/07,05:10,1.096,1.832,1.198,2.087,1.439,0.566,1.036,0.959,���k��,3.2,��
2017/01/07,05:20,1.096,1.837,1.195,2.087,1.438,0.564,1.034,0.960,���k��,3.3,��
2017/01/07,05:30,1.094,1.840,1.195,2.091,1.442,0.566,1.034,0.960,��,2.9,��
2017/01/07,05:40,1.097,1.838,1.195,2.091,1.442,0.563,1.036,0.960,���쐼,2.2,��
2017/01/07,05:50,1.095,1.836,1.195,2.089,1.441,0.564,1.034,0.962,���쐼,3.3,��
2017/01/07,06:00,1.096,1.836,1.193,2.092,1.441,0.565,1.033,0.961,��,4.1,��
2017/01/07,06:10,1.096,1.836,1.193,2.091,1.438,0.564,1.033,0.959,��,3.5,��
2017/01/07,06:20,1.096,1.838,1.196,2.092,1.439,0.565,1.034,0.961,���k��,4.3,��
2017/01/07,06:30,1.096,1.840,1.197,2.091,1.438,0.563,1.035,0.960,���k��,5.3,��
2017/01/07,06:40,1.098,1.838,1.195,2.089,1.439,0.564,1.031,0.960,���k��,5.6,��
2017/01/07,06:50,1.097,1.834,1.197,2.091,1.440,0.563,1.035,0.960,���k��,5.8,��
2017/01/07,07:00,1.098,1.838,1.194,2.091,1.441,0.565,1.035,0.961,��,5.4,��
2017/01/07,07:10,1.097,1.836,1.197,2.086,1.438,0.563,1.034,0.960,��,4.4,��
2017/01/07,07:20,1.098,1.837,1.198,2.090,1.441,0.564,1.035,0.960,��,4.4,��
2017/01/07,07:30,1.098,1.834,1.198,2.087,1.438,0.563,1.034,0.962,��,4.3,��
2017/01/07,07:40,1.099,1.833,1.196,2.090,1.437,0.563,1.035,0.960,��,4.2,��
2017/01/07,07:50,1.098,1.834,1.196,2.088,1.439,0.566,1.036,0.961,��,3.1,��
2017/01/07,08:00,1.099,1.834,1.197,2.088,1.441,0.565,1.038,0.961,���쐼,3.2,��
2017/01/07,08:10,1.100,1.834,1.197,2.093,1.441,0.566,1.036,0.963,���쐼,3.7,��
2017/01/07,08:20,1.099,1.836,1.198,2.091,1.438,0.566,1.037,0.962,���쐼,3.9,��
2017/01/07,08:30,1.100,1.837,1.198,2.090,1.441,0.566,1.036,0.962,���쐼,2.9,��
2017/01/07,08:40,1.102,1.838,1.196,2.093,1.442,0.564,1.036,0.963,��,3.5,��
2017/01/07,08:50,1.101,1.837,1.200,2.091,1.441,0.566,1.038,0.961,���쐼,3.0,��
2017/01/07,09:00,1.100,1.841,1.200,2.097,1.442,0.565,1.039,0.963,�쐼,2.6,��
2017/01/07,09:10,1.102,1.842,1.200,2.093,1.446,0.566,1.038,0.962,�쐼,2.8,��
2017/01/07,09:20,1.104,1.842,1.200,2.093,1.444,0.568,1.036,0.964,��쐼,1.9,��
2017/01/07,09:30,1.106,1.840,1.199,2.092,1.443,0.565,1.040,0.965,��,2.0,��
2017/01/07,09:40,1.105,1.841,1.201,2.093,1.444,0.566,1.041,0.963,��쐼,2.0,��
2017/01/07,09:50,1.106,1.843,1.202,2.093,1.446,0.566,1.039,0.964,�쐼,3.4,��
2017/01/07,10:00,1.106,1.844,1.202,2.098,1.446,0.566,1.041,0.965,��,4.2,��
2017/01/07,10:10,1.105,1.842,1.203,2.096,1.445,0.567,1.038,0.963,��,5.0,��
2017/01/07,10:20,1.106,1.843,1.204,2.099,1.445,0.568,1.038,0.964,��,5.7,��
2017/01/07,10:30,1.107,1.841,1.204,2.093,1.448,0.569,1.041,0.963,���쐼,6.2,��
2017/01/07,10:40,1.105,1.839,1.204,2.094,1.449,0.568,1.040,0.964,��,7.4,��
2017/01/07,10:50,1.106,1.844,1.205,2.099,1.449,0.566,1.040,0.963,��,7.4,��
2017/01/07,11:00,1.108,1.841,1.203,2.101,1.447,0.568,1.038,0.963,��,6.0,��
2017/01/07,11:10,1.108,1.839,1.204,2.100,1.448,0.567,1.041,0.964,��,5.8,��
2017/01/07,11:20,1.107,1.840,1.204,2.101,1.449,0.568,1.040,0.965,��,6.6,��
2017/01/07,11:30,1.107,1.843,1.206,2.096,1.449,0.570,1.037,0.966,��,7.7,��
2017/01/07,11:40,1.109,1.843,1.206,2.102,1.452,0.569,1.041,0.966,��,7.9,��
2017/01/07,11:50,1.110,1.847,1.206,2.100,1.447,0.569,1.042,0.965,���쐼,6.2,��
2017/01/07,12:00,1.112,1.844,1.206,2.100,1.446,0.570,1.040,0.965,��,5.3,��
2017/01/07,12:10,1.113,1.845,1.208,2.102,1.450,0.570,1.041,0.963,���k��,6.4,��
2017/01/07,12:20,1.112,1.842,1.208,2.102,1.448,0.568,1.042,0.965,���쐼,5.9,��
2017/01/07,12:30,1.112,1.843,1.206,2.106,1.452,0.570,1.041,0.965,��,8.0,��
2017/01/07,12:40,1.110,1.846,1.209,2.103,1.451,0.569,1.042,0.967,���쐼,7.6,��
2017/01/07,12:50,1.113,1.846,1.207,2.104,1.453,0.571,1.040,0.966,���쐼,4.8,��
2017/01/07,13:00,1.111,1.843,1.208,2.102,1.452,0.568,1.041,0.968,��,5.6,��
2017/01/07,13:10,1.108,1.847,1.207,2.103,1.451,0.571,1.042,0.968,��,5.7,��
2017/01/07,13:20,1.113,1.845,1.210,2.103,1.451,0.571,1.042,0.968,��,5.9,��
2017/01/07,13:30,1.112,1.845,1.211,2.102,1.454,0.570,1.042,0.966,��,7.2,��
2017/01/07,13:40,1.113,1.843,1.212,2.105,1.455,0.570,1.041,0.965,��,7.4,��
2017/01/07,13:50,1.111,1.846,1.207,2.103,1.451,0.570,1.043,0.964,��,6.9,��
2017/01/07,14:00,1.113,1.844,1.209,2.103,1.452,0.572,1.042,0.964,���쐼,6.5,��
2017/01/07,14:10,1.113,1.844,1.209,2.102,1.450,0.573,1.043,0.963,���쐼,5.8,��
2017/01/07,14:20,1.114,1.843,1.207,2.105,1.450,0.571,1.042,0.963,��,6.7,��
2017/01/07,14:30,1.111,1.845,1.205,2.103,1.454,0.572,1.044,0.967,��,7.9,��
2017/01/07,14:40,1.113,1.843,1.208,2.104,1.454,0.572,1.045,0.968,��,7.0,��
2017/01/07,14:50,1.113,1.842,1.208,2.105,1.452,0.573,1.042,0.967,��,5.5,��
2017/01/07,15:00,1.113,1.845,1.209,2.103,1.453,0.571,1.043,0.967,��,5.9,��
2017/01/07,15:10,1.113,1.845,1.209,2.106,1.452,0.571,1.044,0.966,��,6.0,��
2017/01/07,15:20,1.114,1.849,1.209,2.103,1.455,0.571,1.042,0.965,���쐼,6.1,��
2017/01/07,15:30,1.114,1.851,1.207,2.106,1.452,0.571,1.042,0.966,��,5.1,��
2017/01/07,15:40,1.113,1.847,1.208,2.104,1.448,0.571,1.042,0.966,��,5.9,��
2017/01/07,15:50,1.114,1.851,1.207,2.105,1.451,0.571,1.044,0.967,��,5.8,��
2017/01/07,16:00,1.113,1.850,1.207,2.105,1.451,0.569,1.045,0.965,��,5.0,��
2017/01/07,16:10,1.112,1.849,1.206,2.104,1.453,0.570,1.043,0.966,��,5.4,��
2017/01/07,16:20,1.111,1.851,1.207,2.105,1.453,0.570,1.043,0.964,��,6.2,��
2017/01/07,16:30,1.112,1.848,1.208,2.103,1.455,0.571,1.043,0.966,��,5.4,��
2017/01/07,16:40,1.111,1.849,1.206,2.104,1.454,0.571,1.043,0.966,��,7.3,��
2017/01/07,16:50,1.112,1.845,1.205,2.104,1.456,0.569,1.041,0.966,��,7.0,��
2017/01/07,17:00,1.113,1.846,1.208,2.104,1.451,0.570,1.041,0.966,��,7.5,��
2017/01/07,17:10,1.107,1.846,1.206,2.102,1.451,0.568,1.043,0.963,��,7.3,��
2017/01/07,17:20,1.112,1.849,1.208,2.101,1.453,0.570,1.040,0.966,��,5.1,��
2017/01/07,17:30,1.110,1.846,1.205,2.102,1.453,0.570,1.042,0.966,��,5.5,��
2017/01/07,17:40,1.112,1.847,1.207,2.102,1.452,0.569,1.042,0.965,���k��,5.8,��
2017/01/07,17:50,1.110,1.846,1.208,2.104,1.451,0.572,1.040,0.965,���k��,4.9,��
2017/01/07,18:00,1.110,1.847,1.204,2.102,1.454,0.569,1.041,0.965,��,5.3,��
2017/01/07,18:10,1.108,1.848,1.205,2.103,1.452,0.570,1.042,0.964,���k��,5.6,��
2017/01/07,18:20,1.108,1.845,1.206,2.102,1.450,0.568,1.042,0.966,��,6.0,��
2017/01/07,18:30,1.107,1.845,1.206,2.101,1.452,0.569,1.041,0.964,��,5.9,��
2017/01/07,18:40,1.108,1.846,1.206,2.102,1.451,0.569,1.040,0.966,��,6.5,��
2017/01/07,18:50,1.111,1.847,1.205,2.099,1.450,0.570,1.040,0.965,���k��,5.0,��
2017/01/07,19:00,1.108,1.848,1.206,2.103,1.452,0.570,1.040,0.966,���k��,4.8,��
2017/01/07,19:10,1.110,1.847,1.205,2.100,1.449,0.569,1.040,0.964,���k��,4.6,��
2017/01/07,19:20,1.106,1.848,1.203,2.100,1.454,0.569,1.040,0.964,���k��,5.6,��
2017/01/07,19:30,1.108,1.846,1.205,2.100,1.453,0.568,1.041,0.966,���k��,5.7,��
2017/01/07,19:40,1.108,1.848,1.204,2.100,1.454,0.570,1.041,0.965,��,5.8,��
2017/01/07,19:50,1.109,1.847,1.205,2.100,1.449,0.568,1.041,0.965,��,6.1,��
2017/01/07,20:00,1.109,1.846,1.203,2.099,1.450,0.567,1.040,0.965,��,5.9,��
2017/01/07,20:10,1.107,1.845,1.205,2.100,1.450,0.568,1.039,0.964,��,5.2,��
2017/01/07,20:20,1.106,1.849,1.205,2.101,1.450,0.570,1.040,0.964,��,5.0,��
2017/01/07,20:30,1.108,1.844,1.205,2.100,1.450,0.568,1.040,0.965,��,6.4,��
2017/01/07,20:40,1.107,1.847,1.205,2.099,1.451,0.569,1.039,0.963,��,6.4,��
2017/01/07,20:50,1.111,1.845,1.208,2.102,1.449,0.567,1.038,0.963,��,6.1,��
2017/01/07,21:00,1.109,1.849,1.201,2.100,1.451,0.569,1.039,0.964,��,5.7,��
2017/01/07,21:10,1.108,1.845,1.202,2.100,1.451,0.570,1.039,0.965,��,5.7,��
2017/01/07,21:20,1.109,1.845,1.203,2.099,1.451,0.570,1.041,0.962,��,6.9,��
2017/01/07,21:30,1.106,1.844,1.204,2.102,1.450,0.569,1.040,0.963,��,5.6,��
2017/01/07,21:40,1.107,1.845,1.202,2.100,1.450,0.568,1.041,0.964,��,5.7,��
2017/01/07,21:50,1.108,1.844,1.202,2.101,1.450,0.568,1.039,0.961,��,5.9,��
2017/01/07,22:00,1.108,1.845,1.204,2.103,1.451,0.568,1.040,0.963,��,6.2,��
2017/01/07,22:10,1.107,1.845,1.202,2.100,1.451,0.568,1.039,0.963,��,5.8,��
2017/01/07,22:20,1.108,1.846,1.203,2.100,1.450,0.567,1.040,0.963,��,6.2,��
2017/01/07,22:30,1.109,1.844,1.201,2.102,1.450,0.565,1.041,0.964,��,6.3,��
2017/01/07,22:40,1.108,1.847,1.205,2.100,1.451,0.568,1.037,0.963,��,6.2,��
2017/01/07,22:50,1.106,1.846,1.204,2.100,1.449,0.567,1.039,0.962,��,5.7,��
2017/01/07,23:00,1.108,1.846,1.204,2.101,1.447,0.569,1.040,0.963,���쐼,5.4,��
2017/01/07,23:10,1.108,1.847,1.203,2.098,1.451,0.567,1.038,0.964,���쐼,5.8,��
2017/01/07,23:20,1.107,1.846,1.201,2.100,1.449,0.567,1.040,0.963,���쐼,5.5,��
2017/01/07,23:30,1.108,1.847,1.203,2.099,1.450,0.568,1.039,0.963,���쐼,5.8,��
2017/01/07,23:40,1.108,1.846,1.201,2.098,1.450,0.568,1.040,0.963,���쐼,5.6,��
2017/01/07,23:50,1.105,1.842,1.202,2.098,1.450,0.568,1.040,0.962,���쐼,4.7,��
